Location: Brno
(49.2000°N, 16.6330°E)
Time: 21:35:33
(UTC+02:00)

X-37B - Pass Details

Date: 15 June 2021
Orbit: 383 x 392 km, 45.0° (Epoch: 01 July)

Event Time Altitude Azimuth Distance (km) Brightness Sun altitude
Exits shadow 02:32:00 21° 155° (SSE) 927 2.1 -14.3°
Drops below altitude 10° 02:34:21 10° 107° (ESE) 1,408 3.5 -14.1°
Sets 02:36:43 0° 91° (E) 2,266 4.8 -14.0°
